Weather Roundup
Issued by NWS Chicago, IL

Home | Current Version | Previous Version | Graphics & Text | Print | Product List | Glossary On
Versions: 1 2 3 4 5 6 7 8 9 10 11 12 13 14 15 16 17 18 19 20 21 22 23 24 25 26 27 28 29 30 31 32 33 34 35 36 37 38 39 40 41 42 43 44 45 46 47 48 49 50
000
NZUS59 KLOT 211510
HRRLOT

CHICAGO AREA WEATHER ROUNDUP
NATIONAL WEATHER SERVICE CHICAGO/ROMEOVILLE IL
1000 AM CDT TUE OCT 21 2014

NOTE: "FAIR" INDICATES FEW OR NO CLOUDS BELOW 12,000 FEET WITH NO
SIGNIFICANT WEATHER AND/OR OBSTRUCTIONS TO VISIBILITY.

* THESE STATIONS ARE NOT UNDER NWS QUALITY CONTROL. THEY ALSO MAY NOT
  REPORT WEATHER SUCH AS PRECIPITATION OR FOG.

ILZ005-006-012>014-019>023-211600-
NORTHEAST ILLINOIS

CITY           SKY/WX    TMP DP  RH WIND       PRES   REMARKS
OHARE          PTSUNNY   49  40  71 N13       30.15R
MIDWAY         PTSUNNY   51  41  68 N14       30.15R
AURORA         SUNNY     50  38  63 N14       30.17R
LANSING*       CLOUDY    50  42  73 N10G23    30.14R
JOLIET*        SUNNY     51  36  57 N14       30.16R
WAUKEGAN       PTSUNNY   48  40  73 N10G18    30.15R
DUPAGE AIRPORT CLOUDY    50  40  68 N10       30.16R
WHEELING       CLOUDY    50  40  68 N14       30.16R
KANKAKEE*      CLOUDY    50  40  66 N15       30.15R
MORRIS*        MOSUNNY   53  39  59 NE5       30.16R
LEWIS AIRPORT* PTSUNNY   50  37  61 N9        30.15R
NORTHERLY IS     N/A     49  42  77 N15         N/A
$$

WIZ051-052-058>065-066-070>072-211600-
SOUTHEAST WISCONSIN

CITY           SKY/WX    TMP DP  RH WIND       PRES   REMARKS
MILWAUKEE      CLOUDY    48  39  71 N13       30.18R
KENOSHA*       CLOUDY    49  40  71 N9        30.17R
RACINE*        CLOUDY    48  40  73 N16       30.19R
BURLINGTON     PTSUNNY   47  38  71 N7        30.18R
WAUKESHA       CLOUDY    45  37  76 N10       30.19R
WEST BEND      CLOUDY    45  36  70 N9        30.20R
$$

INZ001>003-010>013-019-020-211600-
NORTHWEST INDIANA

CITY           SKY/WX    TMP DP  RH WIND       PRES   REMARKS
GARY*          PTSUNNY   54  45  71 N14G30    30.13R
MICHIGAN CITY* NOT AVBL
RENSSELAER*    NOT AVBL
VALPARAISO     CLOUDY    50  43  77 N13G21    30.12R
$$

LMZ740>746-211600-
SOUTHERN LAKE MICHIGAN

STATION/POSITION TIME  SKY/WX   TEMP WIND        PRES    VSBY
                                AIR  DIR/SP/G
                 (UTC)          (F)  (DEG/KT/KT) (MB)    (MI)
HARRISON CRIB    1500            48  340/ 22/ 25   N/A
BURNHAM HARBOR   1500            49  320/ 12/ 17   N/A
CALUMET HARBOR   1500            50  330/  8/ 17 1019.3R
BURNS HARBOR     NOT AVBL
MICHIGAN CITY    1500            50  330/ 21/ 23   N/A
$$

ABBREVIATIONS USED IN REMARKS
   TC - TEMPERATURE IN CELSIUS
  WCI - WIND CHILL INDEX
   HX - HEAT INDEX
  VSB - VISIBILITY
$$


USA.gov is the U.S. government's official web portal to all federal, state and local government web resources and services.